Cotulla, TX

6:27 AM CST on November 20, 2019 (GMT -0600)
Cotulla-La Salle County

Weather History for KCOT - August, 2019

Change the Weather History Date:

Tuesday, August 13, 2019

  Actual Average Record
Temperature  
Mean Temperature 93 °F -  
Max Temperature 109 °F 97 °F 109 °F (2019)
Min Temperature 78 °F 73 °F 63 °F (2004)
Cooling Degree Days 28    
Growing Degree Days 43 (Base 50)    
Moisture  
Dew Point 67 °F    
Average Humidity 51    
Maximum Humidity 82    
Minimum Humidity 16    
Precipitation  
Precipitation 0.00 in - - ()
Sea Level Pressure  
Sea Level Pressure 29.83 in    
Wind  
Wind Speed 10 mph (SE)    
Max Wind Speed 25 mph    
Max Gust Speed 31 mph    
Visibility 10 miles    
Events      
Averages and records for this station are not official NWS values.
T = Trace of Precipitation, MM = Missing Value Source: NWS Daily Summary

Daily Weather History Graph

Daily Weather History Graph

Search for Another Location

Airport or City:

Astronomy

Aug. 13, 2019 Rise Set
Actual Time 7:05 AM CDT 8:17 PM CDT
Civil Twilight 6:40 AM CDT 8:42 PM CDT
Nautical Twilight 6:10 AM CDT 9:12 PM CDT
Astronomical Twilight 5:40 AM CDT 9:42 PM CDT
Moon 7:24 PM CDT (8/13) 5:19 AM CDT (8/13)
Length of Visible Light 14h 02m
Length of Day
13h 12m
Waxing Gibbous, 97% of the Moon is Illuminated
Aug 13
Waxing Gibbous
Aug 15
Full
Aug 23
Last Quarter
Aug 30
New
Sep 5
First Quarter

Hourly Weather History & Observations

Time (CDT) Temp. Heat Index Dew Point Humidity Pressure Visibility Wind Dir Wind Speed Gust Speed Precip Events Conditions
12:53 AM 87.1 °F 93.6 °F 72.0 °F 61% 29.84 in 10.0 mi SSE 11.5 mph - N/A   Clear
1:53 AM 84.9 °F 90.1 °F 71.1 °F 63% 29.84 in 10.0 mi SSE 10.4 mph - N/A   Clear
2:53 AM 82.9 °F 85.8 °F 68.0 °F 60% 29.84 in 10.0 mi SSE 6.9 mph - N/A   Clear
3:53 AM 81.0 °F 83.8 °F 68.0 °F 65% 29.84 in 10.0 mi SE 4.6 mph - N/A   Clear
4:53 AM 80.1 °F 82.9 °F 69.1 °F 69% 29.83 in 10.0 mi ESE 6.9 mph - N/A   Clear
5:53 AM 78.1 °F - 70.0 °F 76% 29.84 in 10.0 mi ESE 5.8 mph - N/A   Clear
6:53 AM 78.1 °F - 72.0 °F 81% 29.84 in 10.0 mi East 8.1 mph - N/A   Clear
7:53 AM 79.0 °F - 73.0 °F 82% 29.86 in 10.0 mi ESE 6.9 mph - N/A   Clear
8:53 AM 82.9 °F 89.4 °F 73.9 °F 74% 29.87 in 10.0 mi SE 10.4 mph - N/A   Clear
9:53 AM 86.0 °F 93.0 °F 73.0 °F 65% 29.88 in 10.0 mi South 6.9 mph - N/A   Clear
10:53 AM 91.0 °F 97.6 °F 71.1 °F 52% 29.87 in 10.0 mi Variable 5.8 mph - N/A   Clear
12:53 PM 100.0 °F 105.6 °F 68.0 °F 35% 29.85 in 10.0 mi ESE 12.7 mph - N/A   Clear
1:53 PM 102.0 °F 105.9 °F 64.9 °F 30% 29.83 in 10.0 mi South 4.6 mph 17.3 mph N/A   Clear
3:53 PM 107.1 °F 106.7 °F 57.0 °F 19% 29.79 in 10.0 mi Variable 6.9 mph - N/A   Partly Cloudy
4:53 PM 108.0 °F 106.6 °F 55.0 °F 17% 29.77 in 10.0 mi South 8.1 mph 25.3 mph N/A   Clear
5:53 PM 107.1 °F - 52.0 °F 16% 29.76 in 10.0 mi SE 6.9 mph - N/A   Clear
6:53 PM 107.1 °F - 52.0 °F 16% 29.75 in 10.0 mi SSE 11.5 mph - N/A   Scattered Clouds
7:53 PM 102.9 °F 103.6 °F 60.1 °F 24% 29.77 in 10.0 mi SE 20.7 mph 27.6 mph N/A   Clear
8:53 PM 97.0 °F 102.8 °F 69.1 °F 40% 29.80 in 10.0 mi SE 21.9 mph 29.9 mph N/A   Clear
9:53 PM 91.9 °F 97.4 °F 70.0 °F 48% 29.84 in 10.0 mi SE 25.3 mph 31.1 mph N/A   Clear
10:53 PM 89.1 °F 95.0 °F 71.1 °F 55% 29.87 in 10.0 mi SE 16.1 mph - N/A   Clear
11:53 PM 87.1 °F 95.4 °F 73.9 °F 65% 29.89 in 10.0 mi SE 15.0 mph - N/A   Clear